Find Starlink 31280

NORAD ID: 58843 Int'l Des: 2024-017 Owner: SPXS Country: US Constellation: starlink operational
LEOCIRCULAR

Live Position

Loading 3D Globe...

About Starlink 31280

Description loading...

Upcoming Passes

Passes for default location (London). Set your location on the main map for personalized predictions.

Altitude History

Loading altitude history...

Two-Line Element Set

1 58843U 24017T 26139.61982949 .00000368 00000-0 24555-4 0 9993
2 58843 53.1600 235.0172 0001034 80.7898 279.3220 15.30189085130912
Epoch: May 19, 2026 • Age: 16 hours

Current Status

Altitude 476.7 km
Velocity 7.63 km/s
Sub-Earth Point 31.06°N, 39.83°E
Launch Date Jan 24, 2024
Age 2.3 years
Type internet

Technical Details

Classification Payload
Mass 730.00 kg
Dry Mass 700.00 kg
Total Mass 730.00 kg
Length 0.30 m
Diameter 4.10 m
Span 29.00 m
Shape Box + pan
Manufacturer SPXS
Bus Type Starlink V2M
Phase Status In Orbit
Owner/State SPXS/US

Most Searched